| time (UTC) | temp C | wind direction | speed KPH | gust KPH | rain 1hr cm | rain 24hr cm | rain mn cm | humidity % | barometer mb |
| 20260503050149 | 13 | 160 | 1.6 | 6.4 | 0.00 | 0.00 | 0.00 | 44 | 1011.1 |
| 20260503044649 | 13 | 160 | 4.8 | 6.4 | 0.00 | 0.00 | 0.00 | 47 | 1011.1 |
| 20260503043149 | 13 | 166 | 4.8 | 8.0 | 0.00 | 0.00 | 0.00 | 47 | 1011.1 |
| 20260503041649 | 13 | 151 | 4.8 | 14.5 | 0.00 | 0.00 | 0.00 | 49 | 1011.3 |
| 20260503040149 | 14 | 165 | 4.8 | 9.7 | 0.00 | 0.00 | 0.00 | 45 | 1011.2 |
| 20260503034649 | 15 | 174 | 6.4 | 9.7 | 0.00 | 0.00 | 0.00 | 43 | 1011.2 |
| 20260503033149 | 15 | 167 | 6.4 | 9.7 | 0.00 | 0.00 | 0.00 | 44 | 1011.2 |
| 20260503031649 | 15 | 167 | 3.2 | 8.0 | 0.00 | 0.00 | 0.00 | 43 | 1010.9 |
| 20260503030149 | 15 | 209 | 4.8 | 8.0 | 0.00 | 0.00 | 0.00 | 42 | 1010.8 |
| 20260503024650 | 16 | 205 | 4.8 | 9.7 | 0.00 | 0.00 | 0.00 | 38 | 1011.0 |
| 20260503023150 | 16 | 63 | 3.2 | 6.4 | 0.00 | 0.00 | 0.00 | 36 | 1010.8 |
| 20260503021650 | 16 | 321 | 3.2 | 8.0 | 0.00 | 0.00 | 0.00 | 39 | 1011.0 |
| 20260503020150 | 15 | 33 | 8.0 | 12.9 | 0.00 | 0.00 | 0.00 | 38 | 1010.8 |
| 20260503014650 | 16 | 306 | 8.0 | 14.5 | 0.00 | 0.00 | 0.00 | 40 | 1010.9 |
| 20260503013150 | 16 | 332 | 6.4 | 9.7 | 0.00 | 0.00 | 0.00 | 39 | 1011.0 |
| 20260503011650 | 17 | 56 | 3.2 | 4.8 | 0.00 | 0.00 | 0.00 | 37 | 1011.0 |
| 20260503010150 | 17 | 56 | 3.2 | 6.4 | 0.00 | 0.00 | 0.00 | 37 | 1011.1 |
| 20260503004650 | 17 | 149 | 1.6 | 3.2 | 0.00 | 0.00 | 0.00 | 36 | 1011.1 |
| 20260503003150 | 17 | 170 | 3.2 | 6.4 | 0.00 | 0.00 | 0.00 | 36 | 1011.1 |
| 20260503001650 | 17 | 219 | 6.4 | 48.3 | 0.00 | 0.00 | 0.00 | 39 | 1011.8 |
| 20260503000150 | 17 | 319 | 1.6 | 4.8 | 0.00 | 0.00 | 0.00 | 37 | 1011.5 |
| 20260502234650 | 17 | 319 | 4.8 | 8.0 | 0.00 | 0.00 | 0.00 | 37 | 1011.5 |
| 20260502233150 | 17 | 303 | 4.8 | 9.7 | 0.00 | 0.00 | 0.00 | 35 | 1011.4 |
| 20260502231650 | 16 | 349 | 6.4 | 12.9 | 0.00 | 0.00 | 0.00 | 41 | 1011.6 |
| 20260502230150 | 16 | 316 | 8.0 | 14.5 | 0.00 | 0.00 | 0.00 | 42 | 1011.7 |
| 20260502224650 | 16 | 334 | 11.3 | 20.9 | 0.00 | 0.00 | 0.00 | 41 | 1011.9 |
| 20260502223150 | 17 | 295 | 6.4 | 14.5 | 0.00 | 0.00 | 0.00 | 39 | 1012.1 |
| 20260502221650 | 17 | 322 | 9.7 | 16.1 | 0.00 | 0.00 | 0.00 | 39 | 1012.0 |
| 20260502220150 | 17 | 355 | 8.0 | 14.5 | 0.00 | 0.00 | 0.00 | 37 | 1011.9 |
| 20260502214650 | 17 | 349 | 6.4 | 12.9 | 0.00 | 0.00 | 0.00 | 39 | 1012.1 |
| 20260502213150 | 17 | 286 | 4.8 | 8.0 | 0.00 | 0.00 | 0.00 | 39 | 1012.3 |
| 20260502211650 | 17 | 303 | 8.0 | 17.7 | 0.00 | 0.00 | 0.00 | 38 | 1012.7 |
| 20260502210150 | 16 | 355 | 8.0 | 14.5 | 0.00 | 0.00 | 0.00 | 44 | 1012.6 |
| 20260502204650 | 16 | 313 | 11.3 | 19.3 | 0.00 | 0.00 | 0.00 | 43 | 1012.8 |
| 20260502203150 | 17 | 325 | 8.0 | 14.5 | 0.00 | 0.00 | 0.00 | 42 | 1012.7 |
| 20260502201650 | 17 | 326 | 4.8 | 14.5 | 0.00 | 0.00 | 0.00 | 42 | 1012.8 |
| 20260502200150 | 16 | 348 | 6.4 | 12.9 | 0.00 | 0.00 | 0.00 | 42 | 1012.9 |
| 20260502194650 | 15 | 326 | 6.4 | 14.5 | 0.00 | 0.00 | 0.00 | 42 | 1013.4 |
| 20260502193150 | 15 | 337 | 8.0 | 12.9 | 0.00 | 0.00 | 0.00 | 42 | 1013.5 |
| 20260502191650 | 15 | 9 | 6.4 | 11.3 | 0.00 | 0.00 | 0.00 | 44 | 1013.8 |
| 20260502190150 | 15 | 17 | 4.8 | 8.0 | 0.00 | 0.00 | 0.00 | 49 | 1014.1 |
| 20260502184650 | 15 | 355 | 6.4 | 11.3 | 0.00 | 0.00 | 0.00 | 47 | 1014.0 |
| 20260502183150 | 14 | 304 | 4.8 | 12.9 | 0.00 | 0.00 | 0.00 | 48 | 1014.2 |
| 20260502181650 | 14 | 15 | 4.8 | 8.0 | 0.00 | 0.00 | 0.00 | 47 | 1014.5 |
| 20260502180150 | 13 | 313 | 4.8 | 12.9 | 0.00 | 0.00 | 0.00 | 51 | 1014.5 |
| 20260502170150 | 11 | 259 | 6.4 | 11.3 | 0.00 | 0.00 | 0.00 | 53 | 1015.1 |
| 20260502163150 | 10 | 332 | 8.0 | 12.9 | 0.00 | 0.00 | 0.00 | 55 | 1014.9 |
| 20260502161651 | 10 | 302 | 8.0 | 14.5 | 0.00 | 0.00 | 0.00 | 54 | 1014.8 |
| 20260502160151 | 10 | 314 | 4.8 | 12.9 | 0.00 | 0.00 | 0.00 | 54 | 1014.9 |
| 20260502151651 | 9 | 299 | 4.8 | 11.3 | 0.00 | 0.00 | 0.00 | 56 | 1015.0 |
| 20260502150151 | 9 | 289 | 4.8 | 8.0 | 0.00 | 0.00 | 0.00 | 55 | 1014.9 |
| 20260502130151 | 9 | 311 | 3.2 | 3.2 | 0.00 | 0.00 | 0.00 | 54 | 1014.2 |
| 20260502123151 | 9 | 313 | 4.8 | 6.4 | 0.00 | 0.00 | 0.00 | 54 | 1014.3 |
| 20260502121651 | 9 | 320 | 3.2 | 8.0 | 0.00 | 0.00 | 0.00 | 53 | 1014.1 |
| 20260502120151 | 9 | 242 | 3.2 | 6.4 | 0.00 | 0.00 | 0.00 | 53 | 1014.2 |
| 20260502114651 | 9 | 154 | 3.2 | 9.7 | 0.00 | 0.00 | 0.00 | 52 | 1014.2 |
| 20260502113151 | 10 | 323 | 3.2 | 3.2 | 0.00 | 0.00 | 0.00 | 49 | 1014.1 |
| 20260502111651 | 10 | 324 | 4.8 | 4.8 | 0.00 | 0.00 | 0.00 | 50 | 1014.1 |
| 20260502110151 | 10 | 326 | 6.4 | 9.7 | 0.00 | 0.00 | 0.00 | 50 | 1014.1 |
| 20260502104651 | 10 | 302 | 9.7 | 12.9 | 0.00 | 0.00 | 0.00 | 51 | 1013.9 |
| 20260502103151 | 9 | 277 | 11.3 | 14.5 | 0.00 | 0.00 | 0.00 | 55 | 1013.9 |
| 20260502101651 | 9 | 261 | 11.3 | 14.5 | 0.00 | 0.00 | 0.00 | 55 | 1013.7 |
| 20260502100151 | 8 | 250 | 8.0 | 11.3 | 0.00 | 0.00 | 0.00 | 56 | 1013.6 |
| 20260502090151 | 11 | 11 | 3.2 | 4.8 | 0.00 | 0.00 | 0.00 | 48 | 1013.2 |
| 20260502070151 | 14 | 244 | 3.2 | 4.8 | 0.00 | 0.00 | 0.00 | 38 | 1013.2 |
| 20260502064651 | 14 | 244 | 1.6 | 4.8 | 0.00 | 0.00 | 0.00 | 37 | 1013.2 |
| 20260502063152 | 14 | 244 | 1.6 | 3.2 | 0.00 | 0.00 | 0.00 | 37 | 1012.9 |
| 20260502061652 | 14 | 244 | 3.2 | 4.8 | 0.00 | 0.00 | 0.00 | 37 | 1012.8 |
| 20260502060151 | 14 | 241 | 3.2 | 3.2 | 0.00 | 0.00 | 0.00 | 37 | 1012.8 |
| 20260502054652 | 14 | 246 | 3.2 | 6.4 | 0.00 | 0.00 | 0.00 | 38 | 1012.7 |
| 20260502053152 | 14 | 196 | 3.2 | 6.4 | 0.00 | 0.00 | 0.00 | 38 | 1012.6 |
| 20260502051652 | 14 | 200 | 4.8 | 14.5 | 0.00 | 0.00 | 0.00 | 39 | 1012.5 |